| time (UTC) | temp F | wind direction | speed MPH | gust MPH | rain 1hr in | rain 24hr in | rain mn in | humidity % | barometer mb |
| 20260504050003 | 55 | 157 | 4.0 | 10.0 | 0.00 | 0.00 | 0.00 | 62 | 1010.1 |
| 20260504045003 | 55 | 154 | 4.0 | 8.0 | 0.00 | 0.00 | 0.00 | 62 | 1010.1 |
| 20260504044003 | 56 | 161 | 4.0 | 9.0 | 0.00 | 0.00 | 0.00 | 61 | 1010.1 |
| 20260504043004 | 56 | 159 | 4.0 | 11.0 | 0.00 | 0.00 | 0.00 | 61 | 1010.2 |
| 20260504042004 | 56 | 164 | 4.0 | 8.0 | 0.00 | 0.00 | 0.00 | 61 | 1010.3 |
| 20260504041024 | 56 | 158 | 4.0 | 9.0 | 0.00 | 0.00 | 0.00 | 60 | 1010.3 |
| 20260504040004 | 56 | 148 | 5.0 | 8.0 | 0.00 | 0.00 | 0.00 | 59 | 1010.4 |
| 20260504035003 | 57 | 165 | 5.0 | 10.0 | 0.00 | 0.00 | 0.00 | 59 | 1010.5 |
| 20260504034003 | 57 | 160 | 5.0 | 9.0 | 0.00 | 0.00 | 0.00 | 59 | 1010.7 |
| 20260504033004 | 56 | 162 | 4.0 | 8.0 | 0.00 | 0.00 | 0.00 | 59 | 1010.7 |
| 20260504032024 | 57 | 158 | 5.0 | 10.0 | 0.00 | 0.00 | 0.00 | 59 | 1010.7 |
| 20260504031004 | 56 | 160 | 4.0 | 9.0 | 0.00 | 0.00 | 0.00 | 59 | 1010.7 |
| 20260504030003 | 56 | 157 | 5.0 | 10.0 | 0.00 | 0.00 | 0.00 | 59 | 1010.8 |
| 20260504025024 | 57 | 157 | 4.0 | 10.0 | 0.00 | 0.00 | 0.00 | 59 | 1010.8 |
| 20260504024004 | 57 | 159 | 4.0 | 8.0 | 0.00 | 0.00 | 0.00 | 59 | 1010.8 |
| 20260504023004 | 57 | 161 | 4.0 | 9.0 | 0.00 | 0.00 | 0.00 | 58 | 1010.8 |
| 20260504022003 | 57 | 156 | 5.0 | 11.0 | 0.00 | 0.00 | 0.00 | 58 | 1010.7 |
| 20260504021003 | 57 | 159 | 5.0 | 11.0 | 0.00 | 0.00 | 0.00 | 58 | 1010.7 |
| 20260504020004 | 57 | 160 | 6.0 | 11.0 | 0.00 | 0.00 | 0.00 | 58 | 1010.6 |
| 20260504015003 | 57 | 158 | 4.0 | 8.0 | 0.00 | 0.00 | 0.00 | 58 | 1010.7 |
| 20260504014024 | 58 | 160 | 5.0 | 10.0 | 0.00 | 0.00 | 0.00 | 57 | 1010.6 |
| 20260504013003 | 58 | 159 | 4.0 | 11.0 | 0.00 | 0.00 | 0.00 | 57 | 1010.6 |
| 20260504012004 | 58 | 164 | 4.0 | 9.0 | 0.00 | 0.00 | 0.00 | 57 | 1010.7 |
| 20260504011004 | 58 | 171 | 3.0 | 8.0 | 0.00 | 0.00 | 0.00 | 58 | 1010.7 |
| 20260504010003 | 58 | 163 | 3.0 | 7.0 | 0.00 | 0.00 | 0.00 | 58 | 1010.7 |
| 20260504005004 | 58 | 164 | 3.0 | 9.0 | 0.00 | 0.00 | 0.00 | 57 | 1010.8 |
| 20260504004003 | 58 | 182 | 3.0 | 10.0 | 0.00 | 0.00 | 0.00 | 57 | 1010.8 |
| 20260504003024 | 58 | 174 | 3.0 | 10.0 | 0.00 | 0.00 | 0.00 | 57 | 1010.9 |
| 20260504002003 | 58 | 172 | 4.0 | 10.0 | 0.00 | 0.00 | 0.00 | 56 | 1010.8 |
| 20260504001003 | 59 | 174 | 4.0 | 11.0 | 0.00 | 0.00 | 0.00 | 55 | 1010.9 |
| 20260504000004 | 59 | 191 | 5.0 | 12.0 | 0.00 | 0.00 | 0.00 | 55 | 1010.9 |
| 20260503235004 | 59 | 166 | 4.0 | 13.0 | 0.00 | 0.00 | 0.00 | 54 | 1011.0 |
| 20260503234003 | 59 | 174 | 4.0 | 10.0 | 0.00 | 0.00 | 0.00 | 53 | 1011.0 |
| 20260503233004 | 59 | 176 | 4.0 | 10.0 | 0.00 | 0.00 | 0.00 | 54 | 1011.1 |
| 20260503232003 | 59 | 172 | 6.0 | 16.0 | 0.00 | 0.00 | 0.00 | 52 | 1011.2 |
| 20260503231003 | 59 | 183 | 5.0 | 16.0 | 0.00 | 0.00 | 0.00 | 53 | 1011.4 |
| 20260503230003 | 59 | 181 | 4.0 | 9.0 | 0.00 | 0.00 | 0.00 | 53 | 1011.6 |
| 20260503225003 | 59 | 194 | 5.0 | 12.0 | 0.00 | 0.00 | 0.00 | 51 | 1011.5 |
| 20260503224024 | 59 | 196 | 7.0 | 19.0 | 0.00 | 0.00 | 0.00 | 52 | 1011.6 |
| 20260503223003 | 60 | 172 | 6.0 | 15.0 | 0.00 | 0.00 | 0.00 | 51 | 1011.5 |
| 20260503222003 | 60 | 177 | 5.0 | 16.0 | 0.00 | 0.00 | 0.00 | 51 | 1011.3 |
| 20260503221024 | 60 | 200 | 7.0 | 16.0 | 0.00 | 0.00 | 0.00 | 51 | 1011.4 |
| 20260503220003 | 60 | 192 | 8.0 | 21.0 | 0.00 | 0.00 | 0.00 | 51 | 1011.5 |
| 20260503215003 | 60 | 203 | 7.0 | 20.0 | 0.00 | 0.00 | 0.00 | 50 | 1011.4 |
| 20260503214004 | 60 | 212 | 8.0 | 17.0 | 0.00 | 0.00 | 0.00 | 49 | 1011.6 |
| 20260503213003 | 60 | 204 | 8.0 | 18.0 | 0.00 | 0.00 | 0.00 | 50 | 1011.7 |
| 20260503212003 | 60 | 202 | 7.0 | 16.0 | 0.00 | 0.00 | 0.00 | 50 | 1011.8 |
| 20260503211024 | 60 | 168 | 7.0 | 18.0 | 0.00 | 0.00 | 0.00 | 51 | 1012.1 |
| 20260503210004 | 59 | 176 | 6.0 | 16.0 | 0.00 | 0.00 | 0.00 | 51 | 1012.4 |
| 20260503205003 | 59 | 166 | 8.0 | 15.0 | 0.00 | 0.00 | 0.00 | 50 | 1012.6 |
| 20260503204003 | 60 | 179 | 7.0 | 17.0 | 0.00 | 0.00 | 0.00 | 50 | 1012.6 |
| 20260503203004 | 61 | 199 | 8.0 | 18.0 | 0.00 | 0.00 | 0.00 | 49 | 1013.0 |
| 20260503202003 | 61 | 175 | 7.0 | 22.0 | 0.00 | 0.00 | 0.00 | 49 | 1013.3 |
| 20260503201024 | 60 | 154 | 9.0 | 16.0 | 0.00 | 0.00 | 0.00 | 47 | 1013.4 |
| 20260503200003 | 60 | 159 | 8.0 | 17.0 | 0.00 | 0.00 | 0.00 | 48 | 1013.7 |
| 20260503195003 | 60 | 191 | 5.0 | 12.0 | 0.00 | 0.00 | 0.00 | 51 | 1014.0 |
| 20260503194003 | 59 | 203 | 6.0 | 14.0 | 0.00 | 0.00 | 0.00 | 51 | 1014.4 |
| 20260503193003 | 58 | 209 | 5.0 | 13.0 | 0.00 | 0.00 | 0.00 | 51 | 1014.9 |
| 20260503192025 | 58 | 215 | 6.0 | 11.0 | 0.00 | 0.00 | 0.00 | 51 | 1015.3 |
| 20260503191003 | 58 | 202 | 6.0 | 12.0 | 0.00 | 0.00 | 0.00 | 50 | 1015.1 |
| 20260503190003 | 58 | 215 | 6.0 | 14.0 | 0.00 | 0.00 | 0.00 | 52 | 1015.1 |
| 20260503185004 | 58 | 178 | 6.0 | 17.0 | 0.00 | 0.00 | 0.00 | 51 | 1015.2 |
| 20260503184024 | 58 | 169 | 4.0 | 11.0 | 0.00 | 0.00 | 0.00 | 51 | 1014.9 |
| 20260503183004 | 59 | 201 | 6.0 | 15.0 | 0.00 | 0.00 | 0.00 | 52 | 1015.1 |
| 20260503182004 | 57 | 196 | 6.0 | 14.0 | 0.00 | 0.00 | 0.00 | 52 | 1015.4 |
| 20260503181003 | 56 | 173 | 5.0 | 12.0 | 0.00 | 0.00 | 0.00 | 52 | 1015.8 |
| 20260503180004 | 56 | 192 | 7.0 | 15.0 | 0.00 | 0.00 | 0.00 | 52 | 1016.2 |
| 20260503175003 | 57 | 185 | 5.0 | 13.0 | 0.00 | 0.00 | 0.00 | 53 | 1016.2 |
| 20260503174003 | 57 | 193 | 6.0 | 14.0 | 0.00 | 0.00 | 0.00 | 51 | 1016.4 |
| 20260503173003 | 57 | 197 | 7.0 | 14.0 | 0.00 | 0.00 | 0.00 | 51 | 1016.6 |
| 20260503172003 | 58 | 185 | 8.0 | 19.0 | 0.00 | 0.00 | 0.00 | 49 | 1016.7 |
| 20260503171003 | 58 | 194 | 7.0 | 20.0 | 0.00 | 0.00 | 0.00 | 52 | 1016.9 |
| 20260503151003 | 56 | 195 | 7.0 | 17.0 | 0.00 | 0.00 | 0.00 | 48 | 1018.1 |
| 20260503131003 | 50 | 212 | 5.0 | 11.0 | 0.00 | 0.00 | 0.00 | 55 | 1018.5 |
| 20260503081003 | 37 | 175 | 0.0 | 1.0 | 0.00 | 0.00 | 0.00 | 79 | 1018.0 |
| 20260503072024 | 37 | 213 | 0.0 | 1.0 | 0.00 | 0.00 | 0.00 | 83 | 1018.0 |
| 20260503071003 | 37 | 0 | 0.0 | 1.0 | 0.00 | 0.00 | 0.00 | 83 | 1018.0 |